Location: Unspecified
(0.0000°N, 0.0000°E)
Time: 18:01:35
(UTC+00:00)

Fermi - Visible Passes

Search period start: 13 August 2022 00:00
Search period end: 23 August 2022 00:00
Orbit: 520 x 537 km, 25.6° (Epoch: 13 August)

Date Brightness Start Highest point End Pass type
(mag) Time Alt. Az. Time Alt. Az. Time Alt. Az.
16 Aug 6.6 20:06:26 10° NNW 20:06:26 10° NNW 20:06:26 10° NNW visible
17 Aug 6.1 19:52:10 10° NNW 19:53:30 16° N 19:53:30 16° N visible
18 Aug 5.4 19:38:01 10° NNW 19:40:36 23° N 19:40:36 23° N visible
19 Aug 4.7 19:23:59 10° NW 19:27:36 32° NNE 19:27:45 31° NNE visible
20 Aug 4.3 19:10:01 10° NW 19:13:50 42° NNE 19:14:56 33° ENE visible
21 Aug 6.4 05:24:36 10° S 05:25:39 11° SSE 05:26:43 10° SE visible
21 Aug 3.9 18:56:06 10° NW 19:00:04 57° NNE 19:02:10 25° E visible
22 Aug 6.2 05:09:48 10° S 05:11:56 14° SSE 05:14:04 10° SE visible
22 Aug 3.7 18:42:15 10° WNW 18:46:17 77° NNE 18:49:26 16° ESE visible
22 Aug 6.9 20:24:28 10° WSW 20:24:35 10° WSW 20:24:35 10° WSW visible
